Weather History for Poughkeepsie, NY

Change the Weather History Date:

Monday, March 18, 2013

  Actual Average Record
Temperature  
Mean Temperature 28 °F 37 °F  
Max Temperature 37 °F 49 °F 73 °F (2012)
Min Temperature 18 °F 26 °F -3 °F (1967)
Degree Days  
Heating Degree Days 37 28  
Month to date heating degree days 510 549  
Since 1 July heating degree days 4631 5120  
Cooling Degree Days 0 0  
Month to date cooling degree days 0 0  
Year to date cooling degree days 0 0  
Moisture  
Dew Point 17 °F    
Average Humidity 62    
Maximum Humidity 92    
Minimum Humidity 32    
Precipitation  
Precipitation 0.25 in 0.12 in 0.75 in (1968)
Month to date precipitation 1.09 2.00  
Year to date precipitation 4.75 7.74  
Sea Level Pressure  
Sea Level Pressure 30.25 in    
Wind  
Wind Speed 4 mph (ENE)    
Max Wind Speed 13 mph    
Max Gust Speed 16 mph    
Visibility 6 miles    
Events Fog , Snow    
T = Trace of Precipitation, MM = Missing Value Source: NWS Daily Summary

Daily Weather History Graph

Daily Weather History Graph

Search for Another Location

Airport:

Trip Planner

Search our weather history database for the weather conditions in past years. The results will help you decide how hot, cold, wet, or windy it might be!

Date:

Astronomy

Mar. 18, 2013 Rise Set
Actual Time 7:01 AM EDT 7:05 PM EDT
Civil Twilight 6:34 AM EDT 7:33 PM EDT
Nautical Twilight 6:01 AM EDT 8:05 PM EDT
Astronomical Twilight 5:29 AM EDT 8:38 PM EDT
Moon 10:54 AM EDT (3/18) 1:07 AM EDT (3/18)
Length of Visible Light 12h 59m
Length of Day
12h 03m
Waxing Crescent, 40% of the Moon is Illuminated
Mar 18
Waxing Crescent
Mar 19
First Quarter
Mar 27
Full
Apr 3
Last Quarter
Apr 10
New

Hourly Weather History & Observations

Time (EDT) Temp. Windchill Dew Point Humidity Pressure Visibility Wind Dir Wind Speed Gust Speed Precip Events Conditions
12:53 AM 21.9 °F - 10.9 °F 63% 30.33 in 10.0 mi Calm Calm - N/A   Clear
1:53 AM 25.0 °F 17.1 °F 8.1 °F 49% 30.34 in 10.0 mi NNE 6.9 mph - N/A   Clear
2:53 AM 25.0 °F 16.3 °F 8.1 °F 49% 30.35 in 10.0 mi NNE 8.1 mph - N/A   Clear
3:53 AM 23.0 °F - 8.1 °F 53% 30.37 in 10.0 mi Calm Calm - N/A   Clear
4:53 AM 21.9 °F - 9.0 °F 58% 30.38 in 10.0 mi Calm Calm - N/A   Clear
5:53 AM 19.9 °F - 10.0 °F 65% 30.40 in 10.0 mi Calm Calm - N/A   Clear
6:53 AM 18.0 °F - 10.9 °F 74% 30.42 in 10.0 mi Calm Calm - N/A   Clear
7:53 AM 21.0 °F - 10.9 °F 65% 30.42 in 10.0 mi Calm Calm - N/A   Clear
8:53 AM 25.0 °F 19.3 °F 9.0 °F 51% 30.42 in 10.0 mi North 4.6 mph - N/A   Clear
9:53 AM 27.0 °F 21.6 °F 6.1 °F 41% 30.41 in 10.0 mi East 4.6 mph - N/A   Clear
10:53 AM 30.0 °F - 6.1 °F 36% 30.38 in 10.0 mi Calm Calm - N/A   Clear
11:53 AM 32.0 °F 28.7 °F 6.1 °F 34% 30.37 in 10.0 mi SSW 3.5 mph - N/A   Clear
12:53 PM 35.1 °F 27.4 °F 8.1 °F 33% 30.35 in 10.0 mi SE 10.4 mph - N/A   Clear
1:53 PM 35.1 °F 28.6 °F 9.0 °F 34% 30.30 in 10.0 mi ESE 8.1 mph - N/A   Clear
2:53 PM 36.0 °F 32.1 °F 10.9 °F 36% 30.27 in 10.0 mi Variable 4.6 mph - N/A   Mostly Cloudy
3:53 PM 36.0 °F 33.3 °F 12.0 °F 37% 30.25 in 10.0 mi Variable 3.5 mph - N/A   Overcast
4:53 PM 36.0 °F 29.6 °F 12.0 °F 37% 30.23 in 10.0 mi ESE 8.1 mph - N/A   Overcast
5:53 PM 35.1 °F 29.3 °F 14.0 °F 42% 30.20 in 10.0 mi ESE 6.9 mph - N/A   Overcast
6:37 PM 33.8 °F 24.8 °F 17.6 °F 52% 30.20 in 3.0 mi SE 12.7 mph - 0.00 in Snow Light Snow
6:39 PM 33.8 °F 25.8 °F 19.4 °F 56% 30.20 in 1.8 mi SE 10.4 mph - 0.00 in Snow Light Snow
6:53 PM 30.9 °F 23.5 °F 23.0 °F 72% 30.19 in 1.0 mi ESE 8.1 mph - 0.00 in Snow Light Snow
7:04 PM 30.2 °F 23.4 °F 24.8 °F 80% 30.19 in 0.8 mi Variable 6.9 mph - 0.00 in Snow Light Snow
7:24 PM 28.4 °F 23.3 °F 26.6 °F 93% 30.19 in 0.5 mi Variable 4.6 mph - 0.02 in Fog , Snow Snow
7:32 PM 28.4 °F 24.6 °F 26.6 °F 93% 30.20 in 0.2 mi Variable 3.5 mph - 0.04 in Fog , Snow Heavy Snow
7:42 PM 28.4 °F 21.2 °F 26.6 °F 93% 30.20 in 0.5 mi East 6.9 mph - 0.05 in Fog , Snow Snow
7:53 PM 28.0 °F 22.8 °F 26.1 °F 92% 30.19 in 0.5 mi ESE 4.6 mph - 0.06 in Fog , Snow Snow
8:06 PM 28.4 °F 23.3 °F 24.8 °F 86% 30.18 in 0.8 mi ESE 4.6 mph - 0.00 in Snow Light Snow
8:53 PM 28.0 °F - 25.0 °F 88% 30.15 in 0.8 mi Calm Calm - 0.03 in Snow Light Snow
9:25 PM 28.4 °F 23.3 °F 26.6 °F 93% 30.16 in 0.5 mi North 4.6 mph - 0.02 in Fog , Snow Snow
9:53 PM 28.0 °F 22.8 °F 26.1 °F 92% 30.15 in 0.5 mi NNE 4.6 mph - 0.05 in Fog , Snow Snow
10:22 PM 28.4 °F 22.2 °F 26.6 °F 93% 30.12 in 0.5 mi North 5.8 mph - 0.03 in Fog , Snow Snow
10:45 PM 28.4 °F 22.2 °F 26.6 °F 93% 30.11 in 0.5 mi NNE 5.8 mph - 0.04 in Fog , Snow Snow
10:53 PM 28.9 °F 22.8 °F 27.0 °F 92% 30.10 in 0.5 mi NNE 5.8 mph - 0.05 in Fog , Snow Snow
11:24 PM 28.4 °F 22.2 °F 26.6 °F 93% 30.08 in 1.0 mi NNE 5.8 mph - 0.02 in Snow Light Snow
11:53 PM 28.9 °F 22.8 °F 27.0 °F 92% 30.07 in 1.0 mi NE 5.8 mph - 0.04 in Snow Light Snow